This demonstration page uses our WeatherBlox Daily Observations layout. Learn more.

Left ArrowRight Arrow

39.95238, -75.16362

Hourly Observations for May 19, 2018

Temp ( °F °C ) Dew Point ( °F °C ) Humidity (%) Winds ( mph kmh ) Pressure ( in mb ) Visibility ( mi km ) Precip ( " mm )
12:54 am 00:54 Cloudy with Light Rain 51 10.6 46 7.8 83 83 ENE 14 22 30.30 1026 9 14 0.00 0.03
1:54 am 01:54 Cloudy with Light Rain 50 10 47 8.3 89 89 NE 10 17 30.29 1026 8 13 0.01 0.25
2:30 am 02:30 Cloudy with Light Rain 50 10 47 8.3 89 89 ENE 13 20 30.27 1025 7 11 0.02 0.51
2:54 am 02:54 Cloudy with Light Rain 50 10 48 8.9 93 93 ENE 10 17 30.27 1025 7 11 0.04 1.02
3:38 am 03:38 Cloudy with Light Rain 50 10 48 8.9 93 93 ENE 10 17 30.27 1025 6 10 0.03 0.76
3:54 am 03:54 Cloudy with Light Rain 50 10 48 8.9 93 93 ENE 9 15 30.27 1025 6 10 0.05 1.27
4:26 am 04:26 Cloudy with Rain 50 10 49 9.4 96 96 ENE 9 15 30.27 1025 4 6 0.06 1.52
4:48 am 04:48 Cloudy with Light Rain 50 10 48 9 94 94 ENE 12 19 30.27 1025 5 8 0.15 3.81
4:54 am 04:54 Cloudy with Light Rain 50 10 49 9.4 96 96 ENE 9 15 30.26 1025 6 10 0.16 4.06
5:05 am 05:05 Cloudy with Light Rain 51 10.6 49 9.4 92 92 NE 10 17 30.27 1025 8 13 0.01 0.25
5:33 am 05:33 Cloudy with Light Rain 51 10.6 50 10 96 96 ENE 10 17 30.27 1025 10 16 0.01 0.25
5:48 am 05:48 Cloudy with Light Rain 52 11 50 10 94 94 ENE 10 17 30.27 1025 8 13 0.01 0.25
5:54 am 05:54 Cloudy with Light Rain 51 10.6 50 10 96 96 ENE 10 17 30.26 1025 7 11 0.01 0.25
6:00 am 06:00 Cloudy with Light Rain 51 10.6 50 10 96 96 ENE 9 15 30.27 1025 5 8 0.00 0.03
6:09 am 06:09 Cloudy with Light Rain 51 10.6 50 10 96 96 ENE 9 15 30.27 1025 7 11 0.00 0.03
6:18 am 06:18 Cloudy with Light Rain 51 10.6 50 10 96 96 ENE 12 19 30.27 1025 5 8 0.01 0.25
6:54 am 06:54 Cloudy with Light Rain 52 11.1 51 10.6 97 97 E 13 20 30.25 1024 5 8 0.04 1.02
7:54 am 07:54 Cloudy with Light Rain 53 11.7 52 11.1 96 96 E 15 24 30.24 1024 5 8 0.02 0.51
8:31 am 08:31 Cloudy with Rain 53 11.7 52 11.1 96 96 ENE 10 17 30.24 1024 3 5 0.06 1.52
8:43 am 08:43 Cloudy with Heavy Rain 53 11.7 52 11.1 96 96 E 10 17 30.24 1024 2 3 0.11 2.79
8:49 am 08:49 Cloudy with Heavy Rain 54 12 52 11 94 94 E 13 20 30.24 1024 2 2 0.24 6.10
8:54 am 08:54 Cloudy with Rain 53 11.7 52 11.1 96 96 E 9 15 30.24 1024 2 2 0.27 6.86
9:09 am 09:09 Cloudy with Light Rain 54 12.2 52 11.1 93 93 ENE 8 13 30.24 1024 3 5 0.03 0.76
9:48 am 09:48 Cloudy with Light Rain 54 12 54 12 100 100 E 12 19 30.24 1024 7 11 0.09 2.29
9:54 am 09:54 Cloudy with Light Rain 54 12.2 53 11.7 97 97 E 13 20 30.22 1023 8 13 0.09 2.29
10:04 am 10:04 Cloudy with Light Rain 54 12.2 53 11.7 97 97 E 12 19 30.21 1023 4 6 0.00 0.03
10:20 am 10:20 Cloudy with Light Rain 54 12.2 53 11.7 97 97 E 14 22 30.21 1023 5 8 0.01 0.25
10:54 am 10:54 Cloudy with Light Rain 55 12.8 54 12.2 96 96 E 10 17 30.21 1023 6 10 0.01 0.25
11:54 am 11:54 Cloudy with Light Rain 56 13.3 54 12.2 93 93 E 9 15 30.20 1023 6 10 0.01 0.25
12:42 pm 12:42 Cloudy 57 13.9 55 12.8 93 93 ENE 8 13 30.18 1022 8 13 0.01 0.25
12:54 pm 12:54 Cloudy with Mist and Fog 57 13.9 56 13.3 96 96 E 10 17 30.18 1022 6 10 0.01 0.25
1:47 pm 13:47 Cloudy with Mist and Fog 58 14.4 57 13.9 97 97 ENE 7 11 30.18 1022 6 10 0.00 0.03
1:54 pm 13:54 Cloudy with Mist and Fog 58 14.4 57 13.9 97 97 ENE 7 11 30.16 1021 6 10 0.00 0.03
2:13 pm 14:13 Cloudy with Mist and Fog 59 15 58 14.4 96 96 ENE 7 11 30.15 1021 4 6 0.00 0.00
2:47 pm 14:47 Cloudy with Mist and Fog 59 15 58 14.4 96 96 NE 6 9 30.15 1021 6 10 0.00 0.00
2:54 pm 14:54 Cloudy with Mist and Fog 59 15 58 14.4 96 96 NE 7 11 30.14 1021 6 10 0.00 0.00
3:54 pm 15:54 Cloudy with Light Rain 60 15.6 59 15 96 96 ENE 6 9 30.13 1020 5 8 0.00 0.03
4:54 pm 16:54 Cloudy with Light Rain 62 16.7 60 15.6 93 93 ENE 6 9 30.12 1020 6 10 0.01 0.25
5:38 pm 17:38 Cloudy with Light Rain 62 16.7 61 16.1 96 96 ENE 5 7 30.12 1020 4 6 0.01 0.25
5:54 pm 17:54 Cloudy with Light Rain 62 16.7 61 16.1 96 96 NE 3 6 30.11 1020 4 6 0.01 0.25
6:17 pm 18:17 Cloudy with Light Rain 62 16.7 62 16.7 100 100 ENE 5 7 30.09 1019 7 11 0.00 0.03
6:47 pm 18:47 Cloudy 63 17.2 61 16.1 93 93 E 6 9 30.09 1019 7 11 0.00 0.03
6:54 pm 18:54 Cloudy 63 17.2 62 16.7 97 97 E 5 7 30.08 1019 8 13 0.00 0.03
7:49 pm 19:49 Cloudy with Mist and Fog 63 17 63 17 100 100 NE 6 9 30.09 1019 6 10 0.00 0.03
7:54 pm 19:54 Cloudy with Mist and Fog 63 17.2 62 16.7 97 97 VRB 5 7 30.08 1019 6 10 0.00 0.03
8:48 pm 20:48 Cloudy with Mist and Fog 63 17 63 17 100 100 Calm 30.06 1018 5 8 0.00 0.03
8:54 pm 20:54 Cloudy with Mist and Fog 63 17.2 62 16.7 97 97 NE 5 7 30.07 1018 5 8 0.00 0.03
9:54 pm 21:54 Cloudy with Mist and Fog 63 17.2 62 16.7 97 97 E 6 9 30.07 1018 5 8 0.00 0.00
10:54 pm 22:54 Cloudy with Mist and Fog 63 17.2 62 16.7 97 97 ENE 5 7 30.05 1018 5 8 0.00 0.00
11:40 pm 23:40 Mostly Cloudy 66 18.9 65 18.3 96 96 SSW 5 7 30.06 1018 7 11 0.00 0.00
11:54 pm 23:54 Mostly Cloudy 68 20 67 19.4 96 96 S 9 15 30.04 1017 9 14 0.00 0.00

Powered by AerisWeather